SWA3297 KPBI-KMCO

Flight info

Callsign SWA3297
Flight time 0h 29m
Altitude 20000
Route TBIRD7 CHEFS MUNGI1
Aircraft B737/M-SADE2E3GIJ4RWZ/LB1D1

Departure

Time 2026-05-07 22:03
Airport Palm Beach International Airport (KPBI)

Arrival

Time 2026-05-07 22:32
Airport Orlando International Airport (KMCO)
Time Latitude Longitude Altitude Speed Heading
2026-05-07 21:32 26.68733 -80.09322 22 ft 0 kts 143°
2026-05-07 21:48 26.68734 -80.09323 21 ft 2 kts 143°
2026-05-07 21:48 26.68761 -80.09346 22 ft 4 kts 147°
2026-05-07 21:48 26.68785 -80.09359 23 ft 4 kts 166°
2026-05-07 21:49 26.68809 -80.09360 23 ft 4 kts 210°
2026-05-07 21:49 26.68818 -80.09353 21 ft 1 kts 232°
2026-05-07 21:54 26.68818 -80.09354 21 ft 1 kts 232°
2026-05-07 21:54 26.68807 -80.09371 23 ft 5 kts 237°
2026-05-07 21:55 26.68798 -80.09428 21 ft 9 kts 271°
2026-05-07 21:55 26.68781 -80.09494 22 ft 9 kts 235°
2026-05-07 21:55 26.68739 -80.09544 21 ft 9 kts 216°
2026-05-07 21:55 26.68694 -80.09589 21 ft 8 kts 227°
2026-05-07 21:56 26.68660 -80.09645 22 ft 10 kts 252°
2026-05-07 21:56 26.68650 -80.09729 21 ft 12 kts 265°
2026-05-07 21:56 26.68641 -80.09836 21 ft 15 kts 264°
2026-05-07 21:56 26.68624 -80.09961 21 ft 17 kts 261°
2026-05-07 21:57 26.68607 -80.10092 22 ft 17 kts 262°
2026-05-07 21:57 26.68590 -80.10217 21 ft 16 kts 262°
2026-05-07 21:57 26.68572 -80.10336 21 ft 15 kts 258°
2026-05-07 21:57 26.68553 -80.10451 21 ft 15 kts 269°
2026-05-07 21:58 26.68558 -80.10563 20 ft 14 kts 274°
2026-05-07 21:58 26.68562 -80.10670 20 ft 13 kts 272°
2026-05-07 21:58 26.68565 -80.10770 20 ft 11 kts 263°
2026-05-07 21:58 26.68515 -80.10814 20 ft 6 kts 187°
2026-05-07 21:59 26.68505 -80.10815 20 ft 0 kts 185°
2026-05-07 22:01 26.68496 -80.10816 20 ft 4 kts 185°
2026-05-07 22:01 26.68459 -80.10819 20 ft 6 kts 182°
2026-05-07 22:01 26.68419 -80.10821 20 ft 6 kts 182°
2026-05-07 22:02 26.68376 -80.10823 20 ft 6 kts 182°
2026-05-07 22:02 26.68334 -80.10813 20 ft 6 kts 150°
2026-05-07 22:02 26.68319 -80.10774 20 ft 3 kts 95°
2026-05-07 22:02 26.68317 -80.10751 20 ft 7 kts 94°
2026-05-07 22:03 26.68304 -80.10459 21 ft 73 kts 92°
2026-05-07 22:03 26.68268 -80.09647 21 ft 133 kts 94°
2026-05-07 22:03 26.68233 -80.08498 306 ft 154 kts 93°
2026-05-07 22:03 26.68181 -80.07303 985 ft 152 kts 97°
2026-05-07 22:04 26.68148 -80.06135 1718 ft 153 kts 95°
2026-05-07 22:04 26.68334 -80.04914 2184 ft 176 kts 64°
2026-05-07 22:04 26.68958 -80.03595 2495 ft 209 kts 62°
2026-05-07 22:04 26.69678 -80.02053 2787 ft 238 kts 62°
2026-05-07 22:05 26.70499 -80.00292 3032 ft 269 kts 60°
2026-05-07 22:05 26.71443 -79.98437 3725 ft 277 kts 49°
2026-05-07 22:05 26.72984 -79.97257 4645 ft 271 kts 13°
2026-05-07 22:05 26.74838 -79.96938 5497 ft 271 kts
2026-05-07 22:06 26.76731 -79.96790 6339 ft 275 kts 351°
2026-05-07 22:06 26.78506 -79.97519 7181 ft 273 kts 323°
2026-05-07 22:06 26.79804 -79.99047 8052 ft 273 kts 300°
2026-05-07 22:06 26.80575 -80.00999 8807 ft 282 kts 288°
2026-05-07 22:07 26.81212 -80.03107 9670 ft 290 kts 287°
2026-05-07 22:07 26.81853 -80.05273 10454 ft 300 kts 288°
2026-05-07 22:07 26.82546 -80.07594 10731 ft 328 kts 288°
2026-05-07 22:07 26.83295 -80.10071 11232 ft 345 kts 288°
2026-05-07 22:08 26.84080 -80.12633 12036 ft 349 kts 288°
2026-05-07 22:08 26.84867 -80.15197 13085 ft 347 kts 288°
2026-05-07 22:08 26.85655 -80.17758 13956 ft 352 kts 289°
2026-05-07 22:08 26.86462 -80.20379 14666 ft 358 kts 289°
2026-05-07 22:09 26.87275 -80.23018 15517 ft 359 kts 289°
2026-05-07 22:09 26.88088 -80.25660 16422 ft 360 kts 289°
2026-05-07 22:09 26.88907 -80.28319 17267 ft 363 kts 289°
2026-05-07 22:09 26.89720 -80.30963 18068 ft 366 kts 289°
2026-05-07 22:10 26.90611 -80.33649 18633 ft 368 kts 296°
2026-05-07 22:10 26.92113 -80.35950 18947 ft 369 kts 313°
2026-05-07 22:10 26.94179 -80.37722 18994 ft 386 kts 329°
2026-05-07 22:10 26.96688 -80.38957 19015 ft 400 kts 336°
2026-05-07 22:11 26.99295 -80.40046 18999 ft 398 kts 337°
2026-05-07 22:11 27.01888 -80.41095 18998 ft 397 kts 337°
2026-05-07 22:11 27.04478 -80.42159 18999 ft 396 kts 336°
2026-05-07 22:11 27.07060 -80.43247 18997 ft 396 kts 336°
2026-05-07 22:12 27.09633 -80.44350 18998 ft 396 kts 336°
2026-05-07 22:12 27.12171 -80.45445 19002 ft 396 kts 336°
2026-05-07 22:12 27.14703 -80.46639 18991 ft 394 kts 328°
2026-05-07 22:12 27.16851 -80.48487 19004 ft 389 kts 311°
2026-05-07 22:13 27.18613 -80.50779 19002 ft 387 kts 308°
2026-05-07 22:13 27.20337 -80.53164 18999 ft 387 kts 307°
2026-05-07 22:13 27.22004 -80.55489 18995 ft 387 kts 307°
2026-05-07 22:13 27.23701 -80.57841 18989 ft 387 kts 307°
2026-05-07 22:14 27.25424 -80.60208 18989 ft 386 kts 307°
2026-05-07 22:14 27.27110 -80.62509 18978 ft 386 kts 308°
2026-05-07 22:14 27.28841 -80.64864 18978 ft 386 kts 308°
2026-05-07 22:14 27.30529 -80.67157 18977 ft 386 kts 308°
2026-05-07 22:15 27.32237 -80.69478 18976 ft 386 kts 308°
2026-05-07 22:15 27.33946 -80.71803 18975 ft 386 kts 308°
2026-05-07 22:15 27.35657 -80.74127 18973 ft 386 kts 309°
2026-05-07 22:15 27.37644 -80.76162 18975 ft 390 kts 323°
2026-05-07 22:16 27.40079 -80.77529 18985 ft 394 kts 335°
2026-05-07 22:16 27.42652 -80.78626 18989 ft 395 kts 336°
2026-05-07 22:16 27.45239 -80.79687 18984 ft 396 kts 336°
2026-05-07 22:16 27.47794 -80.80743 18968 ft 384 kts 336°
2026-05-07 22:17 27.50240 -80.81776 18976 ft 368 kts 335°
2026-05-07 22:17 27.52588 -80.82786 18965 ft 355 kts 335°
2026-05-07 22:17 27.54827 -80.83755 18973 ft 342 kts 335°
2026-05-07 22:17 27.56994 -80.84715 18958 ft 327 kts 333°
2026-05-07 22:18 27.59013 -80.85725 18970 ft 309 kts 331°
2026-05-07 22:18 27.62709 -80.87680 18964 ft 278 kts 330°
2026-05-07 22:18 27.64417 -80.88588 18963 ft 264 kts 330°
2026-05-07 22:19 27.66041 -80.89448 18879 ft 253 kts 330°
2026-05-07 22:19 27.67619 -80.90283 18594 ft 248 kts 330°
2026-05-07 22:19 27.69174 -80.91105 18192 ft 247 kts 329°
2026-05-07 22:19 27.70739 -80.91933 17689 ft 249 kts 330°
2026-05-07 22:20 27.72319 -80.92766 17137 ft 253 kts 330°
2026-05-07 22:20 27.73930 -80.93616 16517 ft 259 kts 330°
2026-05-07 22:20 27.75616 -80.94507 15509 ft 279 kts 331°
2026-05-07 22:20 27.77441 -80.95471 14486 ft 299 kts 331°
2026-05-07 22:21 27.79372 -80.96487 13444 ft 314 kts 332°
2026-05-07 22:21 27.81388 -80.97546 12368 ft 325 kts 332°
2026-05-07 22:21 27.83436 -80.98620 11371 ft 332 kts 332°
2026-05-07 22:21 27.85472 -80.99687 10593 ft 332 kts 332°
2026-05-07 22:22 27.87528 -81.00764 10283 ft 316 kts 332°
2026-05-07 22:22 27.89466 -81.01779 10091 ft 298 kts 332°
2026-05-07 22:22 27.91286 -81.02735 9872 ft 283 kts 331°
2026-05-07 22:22 27.93047 -81.03662 9489 ft 275 kts 332°
2026-05-07 22:23 27.94783 -81.04500 9142 ft 268 kts 335°
2026-05-07 22:23 27.96514 -81.05228 8814 ft 264 kts 337°
2026-05-07 22:23 27.98237 -81.05937 8485 ft 263 kts 336°
2026-05-07 22:23 27.99952 -81.06648 8157 ft 262 kts 337°
2026-05-07 22:24 28.01667 -81.07365 7820 ft 262 kts 337°
2026-05-07 22:24 28.03374 -81.08084 7490 ft 262 kts 337°
2026-05-07 22:24 28.05079 -81.08803 7152 ft 261 kts 337°
2026-05-07 22:24 28.06752 -81.09512 6817 ft 260 kts 337°
2026-05-07 22:25 28.08470 -81.10240 6475 ft 260 kts 337°
2026-05-07 22:25 28.10116 -81.10928 6331 ft 252 kts 337°
2026-05-07 22:25 28.11730 -81.11600 6192 ft 242 kts 336°
2026-05-07 22:25 28.13288 -81.12251 6094 ft 235 kts 337°
2026-05-07 22:26 28.14714 -81.13039 5951 ft 223 kts 315°
2026-05-07 22:26 28.15662 -81.14385 5782 ft 217 kts 297°
2026-05-07 22:26 28.16338 -81.15915 5604 ft 218 kts 293°
2026-05-07 22:26 28.16980 -81.17490 5401 ft 222 kts 293°
2026-05-07 22:27 28.17635 -81.19084 5179 ft 223 kts 293°
2026-05-07 22:27 28.18295 -81.20670 4969 ft 221 kts 293°
2026-05-07 22:27 28.18951 -81.22232 4753 ft 218 kts 293°
2026-05-07 22:27 28.19605 -81.23783 4439 ft 219 kts 294°
2026-05-07 22:28 28.20254 -81.25321 4261 ft 214 kts 293°
2026-05-07 22:28 28.20916 -81.26807 4112 ft 215 kts 302°
2026-05-07 22:28 28.22111 -81.27805 3936 ft 223 kts 342°
2026-05-07 22:28 28.23683 -81.28039 3672 ft 233 kts 353°
2026-05-07 22:29 28.25312 -81.28076 3360 ft 235 kts 356°
2026-05-07 22:29 28.26929 -81.28077 3037 ft 230 kts 356°
2026-05-07 22:29 28.28514 -81.28092 2728 ft 225 kts 355°
2026-05-07 22:29 28.30059 -81.28110 2423 ft 219 kts 357°
2026-05-07 22:30 28.31568 -81.28127 2129 ft 214 kts 355°
2026-05-07 22:30 28.33039 -81.28142 1855 ft 209 kts 355°
2026-05-07 22:30 28.34481 -81.28158 1598 ft 207 kts 356°
2026-05-07 22:30 28.35914 -81.28173 1295 ft 204 kts 355°
2026-05-07 22:31 28.37295 -81.28188 1033 ft 192 kts 354°
2026-05-07 22:31 28.38598 -81.28202 811 ft 183 kts 356°
2026-05-07 22:31 28.39817 -81.28214 582 ft 171 kts 355°
2026-05-07 22:31 28.40950 -81.28203 363 ft 154 kts 356°
2026-05-07 22:32 28.41988 -81.28240 122 ft 143 kts 352°
2026-05-07 22:32 28.42893 -81.28251 102 ft 117 kts
2026-05-07 22:32 28.43631 -81.28255 103 ft 94 kts 359°
2026-05-07 22:32 28.43856 -81.28322 106 ft 17 kts 307°
2026-05-07 22:33 28.43954 -81.28379 108 ft 16 kts 358°
2026-05-07 22:33 28.44065 -81.28381 108 ft 16 kts 358°
2026-05-07 22:33 28.44175 -81.28383 105 ft 16 kts 359°
2026-05-07 22:33 28.44255 -81.28386 104 ft 7 kts 334°
2026-05-07 22:34 28.44243 -81.28422 104 ft 7 kts 184°
2026-05-07 22:34 28.44195 -81.28397 105 ft 9 kts 154°
2026-05-07 22:34 28.44101 -81.28379 107 ft 18 kts 180°
2026-05-07 22:34 28.43960 -81.28380 107 ft 21 kts 180°
2026-05-07 22:35 28.43873 -81.28442 106 ft 15 kts 260°
2026-05-07 22:35 28.43875 -81.28568 106 ft 17 kts 269°
2026-05-07 22:35 28.43872 -81.28742 105 ft 26 kts 269°
2026-05-07 22:35 28.43873 -81.28957 106 ft 27 kts 269°
2026-05-07 22:36 28.43869 -81.29169 99 ft 25 kts 268°
2026-05-07 22:36 28.43812 -81.29265 100 ft 16 kts 182°
2026-05-07 22:36 28.43703 -81.29264 101 ft 16 kts 180°
2026-05-07 22:36 28.43591 -81.29270 102 ft 16 kts 205°
2026-05-07 22:37 28.43553 -81.29383 105 ft 16 kts 266°
2026-05-07 22:37 28.43550 -81.29505 105 ft 15 kts 268°
2026-05-07 22:37 28.43551 -81.29628 103 ft 16 kts 272°
2026-05-07 22:37 28.43552 -81.29747 102 ft 15 kts 269°
2026-05-07 22:38 28.43559 -81.29864 100 ft 15 kts 299°
2026-05-07 22:38 28.43657 -81.29895 100 ft 15 kts 355°
2026-05-07 22:38 28.43754 -81.29926 101 ft 14 kts 328°
2026-05-07 22:38 28.43812 -81.30012 100 ft 14 kts 289°
2026-05-07 22:39 28.43817 -81.30117 100 ft 13 kts 258°
2026-05-07 22:39 28.43768 -81.30201 100 ft 13 kts 229°
2026-05-07 22:39 28.43707 -81.30271 100 ft 11 kts 215°
2026-05-07 22:39 28.43654 -81.30300 100 ft 6 kts 180°
2026-05-07 22:40 28.43613 -81.30289 100 ft 5 kts 163°
2026-05-07 22:40 28.43610 -81.30288 98 ft 0 kts 163°
2026-05-07 22:40 28.43608 -81.30287 99 ft 0 kts 163°